Weather History for Hickory, NC

Change the Weather History Date:

Saturday, March 8, 2014

  Actual Average Record
Temperature  
Mean Temperature 50 °F -  
Max Temperature 69 °F 57 °F 81 °F (1974)
Min Temperature 32 °F 34 °F 17 °F (1960)
Degree Days  
Heating Degree Days 14    
Moisture  
Dew Point 35 °F    
Average Humidity 61    
Maximum Humidity 96    
Minimum Humidity 25    
Precipitation  
Precipitation 0.01 in - - ()
Sea Level Pressure  
Sea Level Pressure 29.98 in    
Wind  
Wind Speed 2 mph (WSW)    
Max Wind Speed 9 mph    
Max Gust Speed 17 mph    
Visibility 8 miles    
Events      
Averages and records for this station are not official NWS values.
T = Trace of Precipitation, MM = Missing Value Source: NWS Daily Summary

Daily Weather History Graph

Daily Weather History Graph

Search for Another Location

Airport:

Trip Planner

Search our weather history database for the weather conditions in past years. The results will help you decide how hot, cold, wet, or windy it might be!

Date:

Astronomy

Mar. 08, 2014 Rise Set
Actual Time 6:46 AM EST 6:26 PM EST
Civil Twilight 6:20 AM EST 6:52 PM EST
Nautical Twilight 5:51 AM EST 7:22 PM EST
Astronomical Twilight 5:21 AM EST 7:51 PM EST
Moon 11:38 AM EST (3/8) 1:11 AM EST (3/8)
Length of Visible Light 12h 31m
Length of Day
11h 40m
First Quarter, 51% of the Moon is Illuminated
Mar 8
First Quarter
Mar 16
Full
Mar 23
Last Quarter
Mar 30
New
Apr 7
First Quarter

Hourly Weather History & Observations

Time (EST) Temp. Windchill Dew Point Humidity Pressure Visibility Wind Dir Wind Speed Gust Speed Precip Events Conditions
12:53 AM 35.1 °F - 33.1 °F 92% 29.97 in 10.0 mi Calm Calm - N/A   Clear
1:53 AM 35.1 °F - 33.1 °F 92% 29.97 in 8.0 mi Calm Calm - 0.01 in   Clear
2:53 AM 35.1 °F - 32.0 °F 89% 29.96 in 6.0 mi Calm Calm - N/A   Clear
3:50 AM 33.8 °F - 32.0 °F 93% 29.98 in 2.5 mi Calm Calm - N/A   Clear
3:53 AM 34.0 °F - 30.9 °F 89% 29.96 in 4.0 mi Calm Calm - N/A   Clear
4:53 AM 32.0 °F 27.5 °F 28.9 °F 88% 29.99 in 6.0 mi NW 4.6 mph - N/A   Clear
5:53 AM 33.1 °F - 30.9 °F 92% 30.00 in 7.0 mi Calm Calm - N/A   Clear
6:53 AM 32.0 °F - 30.0 °F 92% 30.02 in 3.0 mi Calm Calm - N/A   Clear
7:53 AM 34.0 °F - 33.1 °F 96% 30.04 in 6.0 mi Calm Calm - N/A   Clear
8:53 AM 44.1 °F - 39.0 °F 82% 30.05 in 10.0 mi Calm Calm - N/A   Clear
9:53 AM 53.1 °F - 42.1 °F 66% 30.05 in 10.0 mi Calm Calm - N/A   Clear
10:53 AM 57.9 °F - 41.0 °F 53% 30.04 in 10.0 mi Variable 3.5 mph - N/A   Clear
11:53 AM 63.0 °F - 37.0 °F 38% 30.02 in 10.0 mi SW 9.2 mph - N/A   Clear
12:53 PM 64.0 °F - 37.0 °F 37% 30.00 in 10.0 mi Variable 6.9 mph 17.3 mph N/A   Clear
1:53 PM 64.0 °F - 37.9 °F 38% 29.97 in 10.0 mi SW 9.2 mph 17.3 mph N/A   Clear
2:53 PM 66.0 °F - 37.0 °F 34% 29.94 in 10.0 mi South 5.8 mph - N/A   Clear
3:53 PM 68.0 °F - 36.0 °F 31% 29.94 in 10.0 mi WSW 9.2 mph - N/A   Clear
4:53 PM 69.1 °F - 32.0 °F 25% 29.92 in 10.0 mi West 6.9 mph - N/A   Clear
5:53 PM 66.0 °F - 35.1 °F 32% 29.94 in 10.0 mi South 5.8 mph - N/A   Clear
6:53 PM 62.1 °F - 37.0 °F 39% 29.97 in 10.0 mi South 9.2 mph - N/A   Clear
7:53 PM 57.9 °F - 37.0 °F 46% 29.99 in 10.0 mi West 5.8 mph - N/A   Clear
8:53 PM 57.0 °F - 37.9 °F 49% 29.98 in 10.0 mi Calm Calm - N/A   Clear
9:53 PM 55.9 °F - 37.0 °F 49% 29.97 in 10.0 mi Calm Calm - N/A   Clear
10:53 PM 52.0 °F - 34.0 °F 50% 29.97 in 10.0 mi West 3.5 mph - N/A   Clear
11:53 PM 54.0 °F - 30.9 °F 41% 29.97 in 10.0 mi West 5.8 mph - N/A   Clear